Voltar ao catálogo

STARLINK-33839

AtivoComunicaçõesVLEO
NORAD 64113·PAYLOAD·🇺🇸 United States

Lançado May 23, 2025 de Vandenberg Space Force Base

Loading…

Próximas Passagens (próximas 24 horas)

TLE

AtualizadoSource: CelesTrak SupGP

Época: Sep 15, 2026, 02:30 UTC

1 64113C 25110T   26258.10465278 -.00051171  00000+0 -16454-2 0  2586
2 64113  53.1595 225.5056 0001441  87.9994 252.2317 15.31730814    12

Acompanhe STARLINK-33839 em tempo real com AllMySat

Download on the App Store